SCP
0 0 0 0 0 0 0 0 0 0 0 0 0 0 0 0 0 0 0 0 0 0 0 0 0 0 0 0 0 0 0 0 0 0 0 0 0 0 0 0 0 0 0 0
0 0 0 0 0 0 0 0 0 0 0 0 0 0 0 0 0 0 0 0 0 0 0 0 0 0 0 0 0 0 0 0 0 0 0 0 0 0 0 0 0 0 0 0
0 0 0 0 0 0 0 0 0 0 0 0 0 0 0 0 0 0 0 0 0 0 0 0 0 0 0 0 0 0 0 0 0 0 0 0 0 0 0 0 0 0 0 0
0 0 0 0 0 0 0 0 0 0 0 0 0 0 0 0 0 0 0 0 0 0 0 0 0 0 0 0 0 0 0 0 0 0 0 0 0 0 0 0 0 0 0 0
0 0 0 0 0 0 0 0 0 0 0 0 0 0 0 0 0 0 0 0 0 0 0 0 0 0 0 0 0 0 0 0 0 0 0 0 0 0 0 0 0 0 0 0
0 0 0 0 0 0 0 0 0 0 0 0 0 0 0 0 0 0 0 0 0 0 0 0 0 0 0 0 0 0 0 0 0 0 0 0 0 0 0 0 0 0 0 0
0 0 0 0 0 0 0 0 0 0 0 0 0 0 0 0 0 0 0 0 0 0 0 0 0 0 0 0 0 0 0 0 0 0 0 0 0 0 0 0 0 0 0 0
0 0 0 0 0 0 0 0 0 0 0 0 0 0 0 0 0 0 0 0 0 0 0 0 0 0 0 0 0 0 0 0 0 0 0 0 0 0 0 0 0 0 0 0
0 0 0 0 0 0 0 0 0 0 0 0 0 0 0 0 0 0 0 0 0 0 0 0 0 0 0 0 0 0 0 0 0 0 0 0 0 0 0 0 0 0 0 0
0 0 0 0 0 0 0 0 0 0 0 0 0 0 0 0 0 0 0 0 0 0 0 0 0 0 0 0 0 0 0 0 0 0 0 0 0 0 0 0 0 0 0 0
0 0 0 0 0 0 0 0 0 0 0 0 0 0 0 0 0 0 0 0 0 0 0 0 0 0 0 0 0 0 0 0 0 0 0 0 0 0 0 0 0 0 0 0
0 0 0 0 0 0 0 0 0 0 0 0 0 0 0 0 0 0 0 0 0 0 0 0 0 0 0 0 0 0 0 0 0 0 0 0 0 0 0 0 0 0 0 0
0 0 0 0 0 0 0 0 0 0 0 0 0 0 0 0 0 0 0 0 0 0 0 0 0 0 0 0 0 0 0 0 0 0 0 0 0 0 0 0 0 0 0 0
0 0 0 0 0 0 0 0 0 0 0 0 0 0 0 0 0 0 0 0 0 0 0 0 0 0 0 0 0 0 0 0 0 0 0 0 0 0 0 0 0 0 0 0
0 0 0 0 0 0 0 0 0 0 0 0 0 0 0 0 0 0 0 0 0 0 0 0 0 0 0 0 0 0 0 0 0 0 0 0 0 0 0 0 0 0 0 0
0 0 0 0 0 0 0 0 0 0 0 0 0 0 0 0 0 0 0 0 0 0 0 0 0 0 0 0 0 0 0 0 0 0 0 0 0 0 0 0 0 0 0 0
0 0 0 0 0 0 0 0 0 0 0 0 0 0 0 0 0 0 0 0 0 0 0 0 0 0 0 0 0 0 0 0 0 0 0 0 0 0 0 0 0 0 0 0
0 0 0 0 0 0 0 0 0 0 0 0 0 0 0 0 0 0 0 0 0 0 0 0 0 0 0 0 0 0 0 0 0 0 0 0 0 0 0 0 0 0 0 0
0 0 0 0 0 0 0 0 0 0 0 0 0 0 0 0 0 0 0 0 0 0 0 0 0 0 0 0 0 0 0 0 0 0 0 0 0 0 0 0 0 0 0 0
0 0 0 0 0 0 0 0 0 0 0 0 0 0 0 0 0 0 0 0 0 0 0 0 0 0 0 0 0 0 0 0 0 0 0 0 0 0 0 0 0 0 0 0
0 0 0 0 0 0 0 0 0 0 0 0 0 0 0 0 0 0 0 0 0 0 0 0 0 0 0 0 0 0 0 0 0 0 0 0 0 0 0 0 0 0 0 0
0 0 0 0 0 0 0 0 0 0 0 0 0 0 0 0 0 0 0 0 0 0 0 0 0 0 0 0 0 0 0 0 0 0 0 0 0 0 0 0 0 0 0 0
0 0 0 0 0 0 0 0 0 0 0 0 0 0 0 0 0 0 0 0 0 0 0 0 0 0 0 0 0 0 0 0 0 0 0 0 0 0 0 0 0 0 0 0
0 0 0 0 0 0 0 0 0 0 0 0 0 0 0 0 0 0 0 0 0 0 0 0 0 0 0 0 0 0 0 0 0 0 0 0 0 0 0 0 0 0 0 0
0 0 0 0 0 0 0 0 0 0 0 0 0 0 0 0 0 0 0 0 0 0 0 0 0 0 0 0 0 0 0 0 0 0 0 0 0 0 0 0 0 0 0 0
0 0 0 0 0 0 0 0 0 0 0 0 0 0 0 0 0 0 0 0 0 0 0 0 0 0 0 0 0 0 0 0 0 0 0 0 0 0 0 0 0 0 0 0
0 0 0 0 0 0 0 0 0 0 0 0 0 0 0 0 0 0 0 0 0 0 0 0 0 0 0 0 0 0 0 0 0 0 0 0 0 0 0 0 0 0 0 0
Wind_Speed
8 7 6 8 9 9 11 12 12 12 13 14 10 9 8 6 5 4 3 2 2 3 3 3 3 3 3 2 2 3 3 4 4 4 4 4 4 4 4 4 4 4 4 4
6 6 7 10 12 12 14 13 15 15 17 11 8 6 6 6 4 4 4 4 4 3 4 4 4 4 3 3 3 3 3 4 3 4 4 4 4 4 4 4 4 4 5 5
6 3 5 11 10 11 10 10 10 13 12 6 5 6 6 5 5 5 5 5 5 5 4 4 4 4 4 3 3 3 3 3 3 4 4 4 4 4 5 5 5 5 5 5
4 2 10 4 2 6 9 10 10 10 9 7 6 7 6 5 6 6 6 5 5 5 5 4 4 4 3 3 2 3 3 3 3 4 4 4 4 5 5 4 5 5 5 5
4 7 10 5 3 5 7 8 8 11 11 8 5 5 5 2 4 5 5 5 5 5 5 4 4 3 3 2 2 3 3 3 3 3 4 4 5 5 4 4 5 5 5 6
5 7 9 3 2 2 2 7 4 6 8 5 2 4 2 1 2 4 4 4 4 4 4 3 3 2 2 2 2 3 3 3 3 3 4 4 5 4 4 4 5 5 5 6
9 9 10 2 3 5 5 4 1 4 4 3 5 5 4 3 3 3 4 3 3 3 3 3 3 2 2 3 3 4 3 3 3 3 3 4 4 3 4 4 4 5 5 5
7 9 10 4 7 7 4 2 1 2 3 4 6 5 5 5 5 4 4 4 3 3 3 3 3 2 3 4 4 3 3 3 3 3 3 3 3 3 3 4 4 5 5 5
9 8 2 5 6 4 2 3 3 4 4 4 5 6 6 6 5 4 4 4 3 3 3 3 3 3 4 4 3 3 3 3 3 3 3 2 3 3 3 3 3 4 4 4
7 9 6 7 7 6 5 6 5 4 4 5 6 6 6 6 5 5 4 4 3 3 3 4 3 3 4 4 3 3 3 3 3 2 3 2 2 3 3 3 3 4 4 4
9 8 7 7 8 8 7 6 6 6 5 6 6 7 6 6 6 5 4 3 3 3 4 4 4 4 4 3 3 3 3 3 3 3 3 3 3 3 3 4 4 4 4 4
8 6 6 5 3 4 6 7 7 6 6 6 6 7 6 6 5 4 4 3 3 4 4 5 4 4 4 3 3 3 3 3 2 2 2 2 2 3 4 5 6 7 7 7
6 4 5 7 6 4 5 6 5 6 6 6 5 5 6 5 4 4 4 4 4 4 4 4 4 4 4 3 3 3 4 3 2 2 2 3 3 3 3 3 5 7 7 8
6 4 6 6 5 4 5 5 4 4 5 5 5 4 4 4 4 4 5 5 4 4 4 4 4 5 4 3 3 3 4 4 4 3 3 3 3 3 3 3 4 4 5 7
5 6 6 5 4 4 3 3 3 4 4 4 4 4 4 4 5 5 4 3 3 4 4 4 5 5 4 3 3 4 3 3 3 3 3 3 3 3 3 4 4 4 4 5
3 4 5 6 6 5 4 4 4 5 4 4 4 4 4 4 4 4 4 3 3 4 4 4 5 5 4 3 4 3 3 5 4 3 3 3 3 3 3 4 4 4 4 4
3 4 4 5 6 5 5 4 5 5 4 4 4 4 3 3 4 4 4 3 4 5 5 5 5 4 4 4 4 3 3 4 5 4 3 3 3 4 4 4 4 4 5 5
5 5 4 5 5 5 5 4 4 4 4 4 4 3 3 4 4 5 4 3 4 4 4 4 4 4 3 4 4 3 3 3 3 3 3 3 4 4 4 4 5 5 5 5
4 4 4 5 4 4 4 4 4 4 4 3 4 4 4 4 5 4 4 3 4 5 4 4 5 4 4 5 5 4 4 4 4 4 4 5 4 4 4 4 5 5 5 5
3 3 4 4 3 3 4 4 4 4 4 3 3 4 4 4 4 4 4 5 4 4 4 5 5 4 4 5 5 3 4 4 4 4 4 4 4 4 4 5 5 5 5 5
3 3 3 3 3 3 3 3 3 4 3 3 3 4 4 4 4 4 4 4 4 4 5 6 4 4 4 5 5 4 4 4 4 4 4 4 4 5 5 5 5 5 5 5
3 3 3 3 3 3 3 3 3 3 3 3 3 4 4 4 4 4 5 4 4 6 4 4 4 5 6 6 3 3 4 4 4 4 4 4 5 5 5 5 6 6 6 6
3 2 3 3 3 3 3 3 2 3 3 3 4 4 4 4 4 4 4 3 3 6 5 4 6 8 7 3 3 3 4 4 4 4 5 5 5 5 5 6 6 6 6 6
2 2 2 2 2 2 3 3 3 2 3 3 3 4 4 3 3 3 3 5 7 8 5 6 9 8 6 3 3 4 4 4 4 4 5 5 5 5 5 6 6 6 6 7
2 2 2 2 2 2 3 3 3 3 3 3 3 4 3 3 3 3 4 4 7 7 5 6 8 8 5 4 4 4 4 4 5 5 5 5 5 5 6 6 6 6 6 6
2 2 2 2 2 2 2 2 2 2 3 3 3 3 3 3 3 3 3 4 6 7 5 4 5 6 4 4 4 5 5 5 5 5 5 5 6 6 6 6 7 6 6 7
2 2 2 2 2 2 2 2 2 3 3 3 4 4 3 3 3 3 4 4 4 4 4 4 4 4 4 4 4 4 4 4 5 5 5 5 5 5 6 7 6 6 6 7
Wind_Direction
264 275 265 256 249 227 222 236 249 263 268 278 289 294 297 297 298 297 295 301 306 305 306 305 302 296 283 274 264 249 238 235 233 229 225 222 220 217 215 215 218 219 222 226
262 257 259 263 256 244 241 245 251 265 271 278 290 291 290 291 288 282 285 292 295 296 297 296 295 293 287 280 272 256 243 242 242 232 224 224 223 219 216 218 220 222 225 228
262 289 277 259 239 222 225 225 231 247 262 288 286 290 292 288 278 273 280 288 289 287 283 284 285 282 278 278 273 253 247 247 242 236 232 229 225 221 218 218 220 226 230 232
275 267 249 258 114 208 231 242 232 250 269 274 277 296 294 282 271 274 280 285 288 290 288 284 285 281 274 271 259 250 249 249 245 239 237 232 227 228 227 224 224 230 233 236
237 258 270 267 205 195 222 258 231 242 259 266 295 297 274 264 255 269 281 287 292 295 290 288 286 285 276 270 260 254 256 257 252 241 237 233 231 233 233 231 232 235 236 237
222 246 257 270 133 169 198 264 217 223 248 257 260 273 302 19 295 288 297 300 300 301 293 286 289 286 274 275 268 264 268 270 265 251 241 239 239 238 235 234 237 240 242 242
231 245 262 285 141 159 216 272 147 213 235 221 226 260 321 321 303 301 304 306 306 300 294 292 291 276 267 272 272 279 282 279 273 265 255 249 247 241 238 237 239 242 246 248
211 232 250 142 155 203 247 360 234 231 231 241 255 275 286 289 292 297 303 307 307 303 302 304 296 274 270 273 282 286 280 275 274 272 267 256 248 246 239 235 238 242 245 249
209 231 300 173 209 237 273 255 250 243 247 246 257 266 277 282 285 288 290 294 297 291 295 301 295 274 270 280 288 279 272 270 272 273 266 257 247 244 241 235 238 241 241 246
252 259 257 245 251 259 251 250 258 257 256 244 249 261 268 273 277 280 283 283 283 281 283 292 294 283 272 280 279 266 265 271 270 266 265 257 251 244 240 239 241 243 242 247
254 270 282 256 242 251 255 252 257 259 252 246 247 255 259 265 268 270 273 277 272 270 277 285 290 285 281 276 260 252 257 261 262 257 258 259 256 254 249 247 245 249 253 252
243 240 240 267 270 249 247 251 250 252 256 249 241 249 257 261 263 264 266 271 270 271 275 281 285 286 287 281 255 244 252 256 255 256 256 255 261 270 268 265 272 268 265 263
254 278 270 279 281 263 257 260 259 251 249 252 248 243 250 257 260 260 261 262 261 266 274 280 284 286 288 281 257 243 249 256 256 253 252 254 258 266 281 282 275 278 280 279
250 265 273 266 272 280 269 271 269 263 257 252 252 249 246 252 256 255 257 261 264 267 272 276 280 284 289 281 261 251 252 255 254 254 254 255 258 262 267 275 283 283 286 289
247 237 253 282 288 283 277 270 263 263 261 258 248 243 241 244 253 260 266 269 267 266 269 274 277 283 288 275 262 258 256 253 251 253 252 255 259 260 262 266 271 281 287 290
281 260 253 260 268 272 268 261 262 267 267 264 259 253 250 252 260 266 267 259 258 268 274 275 276 282 282 269 262 258 254 257 256 254 254 255 258 259 261 263 268 272 277 285
255 264 256 267 272 272 267 261 258 264 267 263 263 268 267 265 268 268 270 267 263 267 270 270 274 280 273 262 257 258 258 259 260 257 254 255 255 256 259 263 267 270 273 280
243 261 265 265 271 274 275 272 265 263 262 265 269 265 257 255 262 270 276 279 277 276 273 275 277 274 269 264 256 257 255 254 253 255 257 257 259 260 262 264 267 271 276 279
258 263 271 270 266 264 269 272 272 270 271 267 262 259 257 258 263 272 276 272 269 275 283 284 283 281 275 268 263 253 251 252 253 256 258 262 263 261 262 264 267 270 273 274
287 282 280 281 279 266 267 273 277 278 277 267 259 260 264 265 266 271 268 263 261 270 283 282 280 276 272 268 268 258 251 251 255 257 257 257 260 262 262 264 267 269 270 270
300 298 293 291 292 286 278 280 278 281 284 266 253 257 264 273 271 267 266 272 276 276 280 282 283 279 274 269 263 256 252 252 255 256 257 259 261 262 264 266 267 267 268 269
308 304 299 299 300 304 305 294 281 280 282 275 266 262 265 271 272 269 260 261 279 289 291 283 282 280 280 272 260 259 256 254 253 253 254 256 258 260 263 266 267 268 267 267
307 304 303 303 303 308 315 309 294 284 280 278 275 271 268 272 274 273 281 278 284 290 292 283 285 289 286 273 267 262 261 259 257 256 255 254 255 258 261 264 265 267 269 268
316 317 313 315 318 315 318 322 314 300 292 288 282 279 277 280 281 270 273 295 300 300 294 290 294 296 292 282 273 267 265 263 262 260 259 258 258 258 260 262 264 265 267 269
314 312 313 316 315 310 312 319 319 313 311 306 304 300 289 276 276 291 293 291 296 302 297 295 299 304 302 287 279 272 269 265 262 262 260 261 261 262 263 264 265 267 268 269
316 312 308 303 299 303 306 308 309 313 314 310 312 311 304 298 292 292 294 296 297 301 302 298 299 300 294 289 283 280 275 275 278 272 266 267 268 267 267 267 269 267 268 268
329 323 319 320 320 311 302 299 299 303 303 300 302 308 311 312 309 306 303 300 301 301 299 299 297 293 291 289 287 285 283 279 274 272 269 266 266 266 267 267 267 268 268 268